Temp
-13 -13 -12 -10 -11 -11 -11 -10 -10 -10 -11 -11 -9 -9 -10 -10 -10 -9 -10 -10 -12 -12 -12 -13 -13 -13 -13 -13 -13 -13 -13 -13 -13 -13 -13 -12 -13 -13 -13 -13 -13 -13 -13 -14 -14 -14 -14 -14 -14
-13 -13 -12 -11 -12 -12 -12 -11 -10 -10 -10 -11 -10 -10 -10 -10 -11 -10 -11 -12 -12 -12 -13 -13 -13 -13 -13 -13 -13 -13 -13 -13 -13 -13 -13 -12 -13 -13 -13 -13 -13 -13 -13 -13 -13 -14 -14 -14 -14
-12 -14 -12 -13 -13 -13 -13 -12 -12 -11 -11 -11 -11 -9 -10 -11 -12 -11 -11 -12 -13 -13 -13 -13 -13 -13 -13 -13 -13 -13 -12 -12 -13 -12 -12 -13 -13 -13 -13 -13 -13 -13 -13 -13 -13 -13 -13 -14 -14
-12 -13 -14 -13 -14 -13 -12 -11 -11 -11 -12 -11 -10 -9 -10 -11 -12 -11 -12 -13 -13 -13 -13 -13 -13 -12 -12 -12 -12 -12 -12 -12 -13 -12 -13 -13 -13 -13 -13 -13 -13 -13 -13 -13 -13 -13 -13 -13 -14
-14 -13 -13 -13 -13 -12 -12 -13 -12 -12 -12 -11 -10 -10 -12 -12 -12 -13 -13 -13 -13 -13 -13 -12 -12 -12 -12 -12 -12 -12 -12 -12 -13 -13 -13 -13 -13 -13 -13 -13 -13 -13 -13 -13 -13 -13 -13 -13 -13
-14 -14 -14 -14 -13 -12 -12 -12 -12 -12 -12 -11 -10 -11 -13 -13 -13 -13 -13 -13 -13 -12 -12 -12 -12 -12 -12 -12 -12 -12 -12 -13 -13 -13 -13 -13 -13 -13 -13 -13 -14 -14 -14 -14 -14 -14 -14 -14 -14
-14 -14 -14 -13 -13 -13 -12 -13 -13 -12 -12 -12 -10 -12 -13 -13 -13 -13 -13 -13 -12 -12 -12 -12 -12 -12 -12 -12 -12 -12 -13 -13 -13 -13 -13 -13 -13 -14 -14 -14 -14 -14 -14 -14 -14 -14 -14 -14 -14
-14 -14 -14 -13 -13 -13 -13 -13 -12 -12 -12 -12 -13 -13 -13 -13 -13 -13 -12 -12 -12 -12 -12 -12 -12 -12 -12 -12 -12 -12 -13 -13 -13 -13 -13 -13 -14 -14 -14 -14 -14 -14 -15 -15 -15 -14 -14 -14 -14
-14 -14 -13 -13 -13 -13 -14 -13 -13 -12 -13 -13 -13 -14 -13 -13 -13 -12 -12 -12 -12 -12 -12 -12 -12 -12 -12 -12 -12 -12 -13 -13 -13 -13 -14 -14 -14 -14 -15 -15 -15 -15 -15 -15 -14 -15 -15 -14 -14
-14 -14 -14 -14 -15 -15 -14 -13 -14 -13 -14 -13 -14 -14 -14 -13 -13 -12 -12 -12 -12 -12 -12 -12 -12 -12 -13 -13 -13 -13 -13 -14 -14 -14 -14 -14 -14 -14 -14 -14 -14 -14 -15 -15 -15 -14 -14 -14 -14
-15 -15 -15 -15 -14 -14 -14 -13 -13 -14 -14 -14 -14 -14 -13 -13 -12 -12 -12 -12 -12 -12 -13 -12 -12 -13 -13 -13 -13 -13 -14 -14 -14 -14 -14 -14 -14 -14 -14 -14 -14 -14 -14 -15 -15 -15 -14 -14 -15
-15 -15 -15 -15 -14 -14 -14 -14 -13 -13 -14 -13 -13 -13 -13 -13 -13 -12 -12 -13 -12 -13 -12 -13 -13 -13 -13 -13 -13 -14 -14 -14 -14 -15 -14 -14 -14 -15 -15 -14 -14 -14 -14 -14 -14 -14 -14 -14 -14
-15 -14 -14 -15 -14 -14 -14 -14 -14 -13 -13 -13 -13 -13 -13 -13 -12 -12 -12 -12 -13 -12 -13 -13 -14 -14 -14 -14 -14 -14 -14 -14 -14 -15 -15 -15 -15 -15 -15 -15 -15 -15 -15 -14 -14 -14 -14 -14 -14
-14 -14 -14 -14 -14 -13 -13 -14 -14 -13 -14 -13 -13 -13 -13 -13 -13 -13 -12 -12 -12 -12 -12 -13 -15 -15 -14 -15 -14 -15 -15 -15 -15 -16 -16 -15 -15 -15 -15 -15 -15 -15 -15 -15 -14 -14 -14 -14 -14
-14 -14 -14 -14 -14 -14 -14 -14 -13 -13 -13 -14 -14 -13 -13 -12 -12 -12 -13 -13 -13 -13 -12 -13 -14 -15 -15 -15 -14 -16 -16 -16 -15 -15 -15 -16 -15 -16 -16 -15 -15 -15 -15 -15 -14 -14 -14 -14 -14
-14 -14 -14 -14 -14 -14 -14 -13 -13 -14 -13 -13 -13 -13 -13 -12 -12 -12 -12 -14 -13 -13 -12 -13 -14 -15 -15 -16 -15 -15 -16 -16 -16 -15 -15 -15 -15 -16 -16 -16 -16 -15 -15 -14 -14 -14 -14 -14 -14
-15 -15 -15 -15 -14 -14 -14 -13 -13 -13 -14 -14 -13 -13 -13 -13 -12 -12 -12 -13 -14 -13 -13 -14 -14 -15 -15 -15 -16 -16 -16 -16 -16 -16 -16 -16 -16 -16 -16 -16 -16 -15 -15 -15 -15 -15 -15 -15 -15
-15 -15 -15 -15 -14 -14 -14 -14 -14 -13 -14 -14 -14 -14 -14 -13 -13 -13 -14 -14 -14 -14 -14 -14 -15 -15 -16 -15 -16 -16 -17 -17 -16 -17 -17 -16 -16 -16 -16 -16 -16 -16 -16 -16 -16 -15 -16 -15 -15
-15 -15 -15 -15 -13 -14 -14 -14 -14 -13 -14 -14 -14 -14 -14 -14 -14 -14 -14 -14 -15 -15 -15 -15 -15 -15 -15 -16 -16 -17 -17 -17 -17 -17 -16 -16 -17 -17 -16 -16 -17 -16 -16 -17 -17 -17 -17 -17 -17
-15 -14 -14 -13 -13 -14 -14 -14 -13 -13 -14 -14 -14 -14 -14 -14 -14 -15 -15 -15 -15 -16 -16 -15 -16 -16 -16 -16 -17 -17 -18 -17 -17 -17 -17 -17 -17 -16 -16 -16 -16 -17 -17 -17 -17 -17 -17 -18 -18
-14 -14 -14 -14 -14 -14 -14 -14 -14 -14 -14 -14 -14 -14 -14 -15 -15 -15 -15 -16 -16 -16 -16 -17 -17 -17 -17 -17 -17 -18 -18 -17 -17 -17 -17 -17 -17 -17 -17 -17 -17 -17 -17 -17 -18 -18 -19 -19 -19
-14 -14 -14 -14 -14 -14 -14 -14 -14 -14 -14 -14 -14 -14 -14 -14 -15 -15 -16 -16 -16 -16 -16 -16 -17 -17 -17 -18 -18 -18 -17 -17 -17 -17 -17 -17 -17 -18 -18 -18 -18 -19 -18 -18 -19 -19 -20 -20 -21
-14 -14 -14 -14 -14 -14 -14 -14 -15 -15 -14 -14 -15 -15 -15 -15 -15 -15 -16 -16 -16 -16 -16 -16 -17 -17 -17 -17 -17 -17 -17 -17 -18 -18 -18 -18 -18 -18 -18 -18 -18 -19 -19 -20 -20 -21 -21 -22 -22
-14 -14 -14 -14 -14 -14 -15 -15 -15 -15 -15 -14 -14 -15 -16 -16 -16 -16 -16 -16 -16 -16 -16 -17 -17 -17 -17 -17 -17 -17 -17 -17 -17 -18 -18 -18 -18 -18 -19 -19 -20 -21 -21 -21 -22 -22 -23 -23 -23
-14 -14 -14 -14 -14 -14 -15 -15 -16 -15 -15 -15 -15 -16 -16 -16 -16 -16 -16 -15 -16 -17 -17 -17 -17 -17 -17 -17 -17 -17 -17 -17 -17 -18 -18 -18 -19 -20 -20 -20 -21 -22 -22 -23 -23 -23 -23 -23 -24
-14 -14 -14 -14 -14 -15 -15 -15 -15 -16 -16 -16 -16 -16 -17 -17 -17 -17 -17 -17 -16 -17 -18 -18 -18 -18 -18 -18 -18 -18 -18 -17 -18 -18 -19 -19 -20 -21 -21 -22 -23 -23 -23 -24 -24 -24 -25 -25 -25
-14 -14 -14 -15 -15 -15 -16 -16 -16 -16 -16 -16 -16 -16 -17 -17 -17 -17 -17 -17 -17 -17 -17 -17 -17 -17 -17 -17 -17 -18 -18 -18 -19 -20 -20 -21 -22 -23 -23 -23 -24 -24 -25 -25 -26 -26 -27 -28 -28
-14 -14 -14 -14 -15 -15 -16 -16 -16 -16 -16 -16 -16 -17 -17 -16 -17 -18 -18 -17 -18 -18 -18 -18 -18 -17 -17 -18 -18 -18 -19 -19 -20 -21 -22 -23 -23 -23 -23 -24 -25 -26 -27 -28 -29 -29 -29 -30 -30
-14 -14 -14 -14 -15 -15 -16 -16 -16 -16 -17 -17 -17 -18 -17 -17 -18 -18 -18 -17 -18 -18 -18 -17 -17 -18 -18 -18 -18 -19 -20 -20 -21 -22 -23 -23 -24 -24 -25 -27 -28 -28 -29 -29 -30 -30 -31 -31 -32
-14 -14 -15 -15 -15 -15 -15 -16 -17 -17 -17 -18 -18 -18 -18 -18 -18 -18 -18 -18 -18 -18 -18 -18 -18 -18 -18 -18 -19 -20 -20 -21 -22 -23 -23 -24 -25 -26 -28 -29 -30 -30 -30 -31 -31 -31 -32 -32 -32
Height
5840 5847 5851 5853 5859 5860 5859 5855 5857 5856 5859 5856 5861 5864 5863 5860 5860 5864 5863 5859 5859 5859 5858 5857 5856 5855 5854 5853 5851 5851 5850 5848 5846 5846 5844 5844 5843 5841 5839 5837 5836 5836 5834 5832 5830 5828 5826 5825 5824
5837 5843 5847 5848 5852 5853 5853 5846 5850 5855 5855 5856 5861 5861 5861 5859 5858 5859 5859 5858 5856 5855 5855 5855 5854 5852 5851 5850 5849 5849 5847 5846 5845 5844 5844 5843 5841 5839 5837 5837 5836 5835 5833 5832 5830 5829 5827 5824 5822
5833 5839 5844 5843 5847 5847 5851 5848 5848 5852 5852 5856 5856 5855 5858 5857 5855 5854 5853 5856 5853 5853 5852 5851 5851 5850 5849 5847 5847 5846 5846 5845 5845 5845 5843 5841 5840 5837 5837 5835 5834 5833 5831 5830 5830 5828 5826 5823 5821
5832 5836 5842 5844 5843 5843 5843 5844 5849 5849 5847 5852 5853 5852 5853 5852 5848 5849 5850 5852 5850 5849 5850 5850 5849 5849 5848 5848 5847 5847 5847 5847 5846 5844 5842 5840 5838 5837 5835 5834 5832 5831 5830 5829 5829 5827 5824 5822 5820
5829 5836 5840 5839 5839 5839 5842 5845 5845 5846 5846 5846 5847 5848 5847 5845 5844 5843 5849 5848 5848 5848 5848 5849 5849 5849 5849 5848 5847 5846 5846 5846 5844 5843 5841 5839 5837 5835 5834 5833 5831 5830 5829 5827 5827 5825 5823 5821 5819
5829 5834 5835 5835 5837 5840 5841 5843 5844 5844 5844 5839 5841 5843 5844 5842 5842 5842 5845 5843 5846 5847 5847 5847 5848 5848 5849 5848 5848 5846 5845 5844 5843 5841 5838 5836 5835 5833 5832 5830 5828 5826 5825 5823 5823 5821 5819 5818 5816
5829 5829 5830 5834 5835 5837 5841 5842 5840 5843 5840 5836 5837 5840 5840 5838 5839 5839 5841 5842 5844 5847 5848 5847 5848 5848 5848 5847 5846 5845 5844 5843 5840 5838 5836 5834 5832 5830 5828 5826 5825 5822 5821 5819 5817 5817 5815 5812 5811
5828 5830 5829 5831 5834 5835 5839 5839 5837 5836 5835 5835 5837 5840 5840 5839 5839 5840 5841 5845 5845 5846 5847 5848 5848 5847 5846 5844 5844 5843 5841 5839 5836 5836 5833 5831 5830 5827 5824 5822 5819 5817 5816 5813 5812 5811 5809 5807 5805
5823 5827 5828 5829 5830 5832 5835 5836 5837 5836 5837 5837 5838 5838 5838 5839 5840 5842 5844 5845 5846 5847 5847 5846 5845 5844 5843 5841 5841 5840 5838 5835 5832 5831 5829 5827 5826 5824 5820 5816 5814 5812 5810 5807 5806 5804 5803 5801 5800
5824 5826 5825 5825 5828 5830 5832 5832 5834 5832 5833 5835 5837 5837 5838 5840 5842 5842 5844 5845 5846 5844 5845 5844 5842 5841 5839 5839 5838 5836 5833 5831 5828 5825 5824 5821 5820 5818 5816 5813 5810 5807 5804 5802 5799 5797 5796 5794 5792
5821 5823 5826 5826 5827 5828 5831 5833 5832 5832 5834 5835 5838 5838 5839 5841 5841 5843 5843 5843 5843 5843 5842 5839 5837 5838 5839 5837 5833 5830 5828 5826 5823 5821 5819 5815 5812 5809 5807 5804 5802 5800 5797 5795 5793 5791 5790 5788 5785
5821 5820 5825 5829 5829 5828 5831 5832 5831 5834 5835 5835 5838 5841 5839 5840 5842 5842 5841 5841 5841 5841 5839 5835 5836 5835 5833 5831 5829 5829 5824 5821 5819 5817 5814 5810 5807 5803 5800 5795 5793 5791 5789 5786 5784 5782 5781 5780 5778
5818 5821 5825 5827 5829 5830 5832 5833 5833 5834 5834 5835 5837 5838 5840 5840 5840 5839 5839 5837 5837 5837 5836 5831 5828 5828 5828 5826 5822 5818 5815 5815 5812 5810 5807 5804 5802 5799 5794 5790 5787 5783 5780 5777 5775 5773 5771 5771 5771
5821 5821 5824 5827 5829 5831 5832 5832 5833 5833 5834 5834 5835 5837 5837 5838 5839 5837 5834 5833 5833 5830 5828 5829 5823 5821 5822 5822 5818 5815 5810 5809 5808 5804 5801 5799 5795 5791 5787 5781 5779 5775 5772 5768 5767 5765 5764 5763 5761
5819 5823 5825 5827 5829 5830 5830 5832 5832 5833 5834 5834 5833 5833 5834 5835 5836 5836 5833 5830 5829 5825 5821 5818 5811 5817 5814 5816 5812 5811 5807 5803 5800 5797 5794 5791 5786 5781 5779 5773 5770 5766 5763 5760 5758 5756 5754 5753 5751
5821 5822 5824 5826 5828 5829 5830 5829 5831 5832 5832 5832 5834 5833 5832 5830 5830 5831 5829 5827 5825 5824 5816 5813 5812 5812 5815 5811 5806 5801 5800 5796 5793 5787 5783 5782 5780 5776 5770 5764 5761 5756 5752 5750 5748 5746 5744 5741 5738
5821 5821 5822 5825 5827 5829 5829 5828 5828 5830 5831 5831 5829 5829 5829 5827 5827 5825 5823 5824 5820 5818 5815 5811 5811 5810 5808 5807 5800 5795 5793 5788 5782 5777 5773 5767 5764 5760 5756 5753 5750 5746 5743 5740 5736 5733 5729 5727 5724
5819 5820 5822 5825 5829 5829 5830 5827 5827 5828 5829 5829 5828 5826 5827 5826 5823 5821 5819 5817 5817 5817 5813 5809 5806 5802 5800 5795 5791 5790 5783 5779 5773 5771 5767 5763 5758 5753 5747 5743 5738 5733 5730 5727 5722 5720 5717 5713 5709
5819 5823 5823 5825 5828 5829 5830 5826 5826 5826 5827 5828 5826 5826 5823 5822 5822 5818 5816 5814 5812 5809 5808 5803 5802 5797 5788 5786 5785 5781 5773 5767 5763 5758 5754 5749 5745 5741 5737 5732 5727 5723 5719 5713 5707 5702 5698 5694 5689
5819 5822 5820 5823 5827 5827 5827 5825 5826 5825 5826 5824 5824 5823 5822 5820 5819 5817 5816 5812 5809 5806 5803 5799 5795 5790 5786 5780 5775 5772 5767 5762 5756 5750 5745 5740 5734 5729 5723 5717 5712 5708 5703 5698 5691 5685 5681 5677 5669
5817 5820 5822 5824 5825 5825 5825 5821 5821 5822 5820 5820 5820 5820 5820 5820 5819 5817 5815 5811 5806 5802 5798 5794 5789 5784 5779 5774 5769 5765 5760 5755 5749 5742 5735 5729 5723 5716 5709 5703 5697 5690 5684 5678 5671 5664 5659 5654 5648
5818 5819 5820 5820 5821 5821 5822 5818 5815 5815 5816 5814 5814 5814 5814 5814 5813 5812 5809 5803 5800 5796 5792 5787 5782 5776 5771 5765 5761 5757 5751 5744 5739 5732 5725 5717 5709 5702 5695 5688 5679 5671 5665 5657 5650 5643 5636 5630 5625
5815 5815 5816 5816 5817 5817 5819 5817 5811 5806 5802 5809 5813 5809 5806 5805 5804 5804 5803 5798 5794 5789 5784 5777 5773 5769 5763 5757 5752 5748 5742 5735 5727 5720 5712 5703 5694 5685 5677 5668 5660 5651 5643 5636 5628 5622 5614 5608 5601
5810 5811 5811 5812 5813 5815 5813 5812 5805 5803 5805 5801 5802 5804 5801 5798 5792 5788 5786 5786 5783 5779 5773 5768 5763 5757 5754 5750 5745 5739 5732 5724 5715 5707 5699 5690 5680 5670 5658 5647 5636 5628 5618 5610 5602 5594 5588 5580 5575
5807 5807 5808 5809 5809 5810 5810 5807 5802 5802 5799 5795 5795 5794 5792 5788 5785 5780 5776 5774 5774 5771 5766 5762 5756 5749 5741 5735 5728 5721 5713 5705 5697 5689 5681 5670 5659 5647 5636 5626 5613 5603 5595 5587 5578 5569 5561 5555 5549
5805 5806 5805 5805 5805 5807 5805 5799 5799 5798 5794 5790 5788 5785 5785 5785 5781 5773 5765 5762 5758 5758 5754 5748 5744 5740 5735 5727 5720 5713 5704 5695 5685 5676 5664 5652 5638 5625 5614 5605 5593 5580 5572 5564 5555 5544 5533 5525 5517
5804 5804 5804 5803 5803 5803 5798 5797 5794 5793 5790 5788 5783 5778 5775 5774 5775 5768 5765 5761 5756 5750 5744 5740 5734 5728 5722 5715 5707 5696 5685 5673 5663 5652 5640 5628 5616 5604 5591 5580 5571 5558 5547 5537 5528 5519 5510 5499 5490
5803 5803 5802 5801 5800 5800 5795 5791 5789 5785 5784 5780 5776 5772 5770 5765 5761 5759 5754 5748 5744 5740 5736 5731 5724 5717 5709 5700 5690 5679 5668 5654 5643 5631 5618 5606 5594 5582 5568 5557 5545 5533 5522 5510 5501 5493 5484 5477 5471
5801 5800 5799 5797 5795 5794 5793 5787 5782 5779 5777 5772 5769 5766 5764 5760 5755 5750 5745 5741 5738 5734 5727 5720 5712 5704 5696 5685 5673 5661 5649 5637 5622 5610 5597 5585 5571 5558 5546 5534 5523 5511 5500 5490 5480 5471 5465 5459 5453
5800 5799 5797 5795 5792 5787 5786 5785 5776 5772 5766 5766 5761 5760 5759 5755 5749 5744 5740 5734 5728 5723 5716 5708 5700 5691 5681 5671 5658 5646 5633 5618 5604 5590 5575 5564 5547 5536 5525 5512 5498 5486 5476 5468 5461 5455 5449 5443 5438
Wind_Speed
14 12 13 12 14 14 17 17 17 28 26 27 24 20 22 24 23 21 20 23 21 22 24 22 20 15 10 8 6 3 3 4 5 8 10 12 13 12 12 12 12 12 11 11 12 13 12 12 12
15 16 15 14 18 25 25 28 19 26 19 18 26 31 26 23 25 25 24 22 25 24 21 17 13 8 9 8 6 2 2 5 7 6 6 8 9 9 9 9 10 10 11 12 12 13 12 9 9
23 12 11 11 16 19 18 27 33 26 26 24 31 27 21 18 18 22 22 21 21 18 13 11 9 8 7 4 4 4 6 7 4 3 3 4 5 7 8 9 9 10 10 10 11 10 11 11 9
20 18 10 15 14 22 20 23 23 20 24 30 31 27 21 12 16 20 20 15 13 11 11 9 7 5 3 3 5 6 5 3 1 2 3 6 7 8 8 9 9 10 11 12 12 12 12 12 12
7 14 18 16 14 12 20 24 27 28 28 34 28 18 11 12 16 14 9 11 12 10 9 8 5 5 5 5 4 3 2 1 4 6 8 9 10 11 11 11 11 11 12 12 13 12 12 12 15
14 21 25 26 14 11 19 22 26 26 27 24 21 9 8 7 8 11 10 12 10 10 9 7 4 3 3 3 3 5 6 8 8 9 11 12 13 15 15 15 16 16 17 16 16 15 15 16 17
15 20 28 24 23 17 19 21 32 34 29 25 23 7 4 4 4 7 11 12 11 8 6 5 2 1 2 5 8 9 11 13 13 13 14 15 16 19 20 20 20 20 20 20 21 22 22 23 23
25 22 15 20 19 23 23 23 25 28 30 21 11 8 5 5 6 10 12 12 9 6 4 0 2 4 6 7 10 12 14 15 17 17 16 18 19 22 24 23 22 21 21 22 22 22 21 23 23
18 16 14 15 16 19 13 18 16 22 17 10 2 6 3 4 6 10 10 8 6 3 2 4 6 7 9 10 12 14 16 18 22 22 23 24 23 24 25 26 24 23 22 23 23 24 24 25 24
19 13 10 16 17 17 11 17 16 13 6 3 5 4 4 5 6 7 6 3 2 2 2 6 7 9 12 12 13 15 17 20 23 24 26 26 26 25 24 24 24 26 27 29 33 33 33 32 30
18 13 18 19 21 24 19 14 11 3 3 2 6 3 3 4 5 3 1 2 3 3 4 11 12 12 10 12 16 19 20 23 24 26 28 29 30 30 30 31 31 32 33 35 35 34 33 33 31
11 13 18 17 20 21 14 8 3 2 3 3 4 4 3 4 5 4 4 6 6 5 11 18 13 13 15 16 17 18 22 25 26 29 31 33 34 36 36 37 37 37 37 39 38 38 36 32 29
17 16 14 21 17 8 6 4 2 3 3 2 1 3 3 5 3 4 8 7 9 12 14 18 18 11 16 21 24 26 29 31 32 34 35 35 35 37 37 40 40 40 40 39 37 36 34 32 31
16 5 9 9 8 6 4 1 0 4 4 5 4 4 5 5 4 8 13 14 14 18 22 18 25 15 11 17 28 30 31 34 36 36 37 37 39 40 40 43 40 39 37 37 35 34 34 35 36
14 13 12 11 8 4 2 1 4 2 1 2 8 11 9 8 7 7 12 16 18 23 29 25 1 20 24 36 40 32 25 38 35 41 41 42 43 45 44 45 43 42 40 40 37 37 39 42 43
9 8 12 11 6 3 4 9 4 3 4 6 7 9 13 15 18 16 14 17 22 22 28 31 30 30 22 36 37 23 40 37 44 49 47 47 45 45 47 46 46 46 45 45 44 44 47 50 50
11 10 5 10 8 1 5 8 5 7 5 9 12 15 17 20 22 23 23 18 22 27 28 37 36 35 32 38 35 33 44 50 48 50 52 54 53 53 50 49 52 53 52 52 52 53 56 57 57
11 4 4 11 7 2 6 8 11 8 8 11 13 19 19 21 25 26 29 28 28 28 32 39 40 39 41 41 45 48 48 48 52 52 53 52 51 52 56 56 55 56 56 59 61 63 60 62 63
8 14 12 12 1 2 6 13 17 18 13 13 15 17 20 24 26 31 32 32 33 33 38 41 43 44 46 48 49 42 52 53 56 57 54 55 57 58 56 56 57 60 61 62 64 67 70 72 75
12 20 17 11 7 8 11 17 17 18 14 17 15 17 20 24 27 31 32 36 35 38 40 42 44 45 47 50 46 51 51 56 57 55 57 59 59 61 63 65 65 66 67 68 71 73 75 75 78
12 14 15 12 5 7 8 16 17 16 18 17 16 20 21 23 27 30 33 34 37 40 43 45 46 48 49 49 49 51 54 52 54 56 57 59 61 63 66 69 72 75 76 76 76 77 78 78 77
7 9 12 11 8 10 9 16 21 23 21 24 24 26 29 26 27 30 33 38 40 42 43 43 45 47 47 49 47 51 52 54 55 57 60 62 64 68 72 75 77 79 80 82 82 80 79 79 79
8 12 12 12 11 13 13 14 21 28 35 28 24 28 26 30 36 36 34 35 36 36 38 40 41 40 42 45 46 49 53 55 57 60 64 68 72 77 80 80 81 83 84 83 83 82 82 82 81
13 14 14 15 14 12 12 17 29 30 29 32 34 25 31 41 43 42 41 37 34 34 35 38 40 43 44 46 48 49 51 57 62 66 70 74 78 80 81 83 85 84 83 84 84 83 82 83 84
10 10 12 14 13 15 13 21 26 28 33 36 37 40 42 41 41 41 43 42 34 32 33 36 38 41 47 50 53 57 62 67 72 76 79 82 84 85 85 85 85 84 84 84 84 85 86 86 87
2 3 4 6 10 9 12 22 23 25 29 33 36 42 39 37 36 45 45 44 42 37 35 38 40 41 44 49 55 60 66 71 76 78 82 83 83 83 82 82 83 85 84 84 85 86 88 89 89
5 6 8 9 10 11 19 23 26 26 31 36 38 39 42 41 39 33 34 34 34 35 37 39 43 47 53 59 64 70 76 81 83 84 85 83 81 81 81 82 81 82 83 84 84 84 84 83 78
8 11 13 12 12 8 16 25 30 34 35 39 44 41 43 37 34 33 35 35 37 40 42 45 50 57 63 68 73 77 80 84 86 84 81 81 81 81 82 81 81 81 81 81 81 78 72 65 57
11 15 18 20 18 17 11 21 28 31 34 37 36 33 32 35 36 33 34 37 40 43 47 52 59 64 69 73 77 81 85 86 85 81 81 82 81 81 80 77 77 78 76 73 68 63 55 47 45
11 15 18 23 24 24 21 15 27 28 31 25 30 29 34 32 32 34 38 42 45 49 53 58 64 69 73 76 80 83 86 86 84 81 81 83 83 78 73 73 70 69 67 62 57 49 44 45 48
Wind_Direction
196 228 229 220 201 182 184 208 218 232 225 225 234 241 251 259 259 273 249 265 282 285 287 297 303 292 292 299 314 314 12 42 62 76 68 62 61 56 49 47 39 33 24 11 3 355 342 328 315
188 220 213 206 198 188 194 209 221 213 210 252 249 251 262 261 252 264 264 265 277 280 292 296 286 278 290 291 282 276 123 123 114 91 72 58 50 41 36 23 16 9 3 357 358 359 360 351 335
208 179 202 253 161 190 209 236 229 224 230 259 252 265 254 246 250 262 268 261 276 283 280 268 260 272 273 251 210 180 140 130 105 79 50 32 20 14 359 352 341 340 342 341 342 344 344 351 340
209 180 154 161 196 214 230 232 232 249 259 252 264 266 271 265 247 251 260 274 256 258 250 242 249 246 204 154 109 102 97 106 176 326 342 351 342 337 334 327 327 329 330 323 323 324 325 324 317
172 179 161 169 164 183 222 233 247 248 251 269 275 268 284 266 257 257 245 231 228 224 222 217 171 120 98 92 103 94 91 338 342 336 337 333 326 323 317 310 308 312 314 316 313 317 319 321 316
189 150 163 182 193 188 231 245 264 256 267 255 271 294 232 251 251 246 221 220 194 201 197 168 148 120 81 58 4 349 340 330 323 322 324 318 320 315 311 312 307 305 303 304 302 297 296 298 299
192 183 189 211 195 219 221 252 261 256 256 250 276 291 211 207 254 224 189 182 176 170 151 135 130 47 353 341 330 329 326 320 315 318 322 321 322 312 313 312 309 306 301 299 296 296 293 291 290
164 191 213 181 200 227 239 239 269 255 239 270 278 82 164 135 110 138 155 149 148 148 133 108 326 319 311 314 318 313 307 310 315 318 312 311 312 311 310 307 304 302 300 299 299 299 298 297 295
170 186 190 199 206 227 239 255 248 239 243 245 224 89 162 177 151 151 150 139 154 171 271 300 307 304 300 308 306 306 312 314 309 311 313 310 309 307 308 304 303 302 302 301 302 305 303 300 298
170 157 165 206 210 233 241 251 235 246 253 243 187 163 160 176 174 165 151 186 202 312 303 288 278 282 291 296 302 306 306 305 307 314 311 306 303 300 304 303 305 306 309 310 308 307 307 307 300
157 145 192 221 256 278 258 234 209 170 175 181 147 159 186 178 204 204 270 282 295 335 309 273 277 286 287 301 306 310 313 312 317 313 311 312 313 315 314 315 310 307 306 306 304 302 300 299 295
190 195 195 214 237 267 228 198 219 93 87 106 104 133 223 228 250 286 288 291 297 284 281 287 291 293 299 307 302 299 301 305 316 318 317 316 316 317 315 312 307 303 300 301 301 299 298 295 295
208 213 212 214 237 242 181 184 303 36 2 331 191 205 217 254 258 279 284 281 283 292 284 277 289 288 297 312 310 314 312 316 316 318 318 316 313 308 308 305 303 300 299 298 299 297 295 293 292
216 151 143 147 144 164 152 157 166 7 352 316 284 235 239 253 285 315 313 311 313 304 295 304 280 273 297 316 310 310 313 313 313 314 311 314 309 308 310 306 305 300 301 302 299 297 295 293 292
132 131 132 126 112 93 67 198 277 249 225 345 314 303 288 274 290 307 308 309 312 312 310 312 148 326 298 324 313 306 306 311 306 311 313 313 313 314 314 310 310 308 309 304 298 292 291 292 290
121 134 132 80 52 80 336 321 157 43 344 333 298 295 306 315 308 308 309 312 309 309 312 318 327 318 311 310 315 302 313 310 311 310 311 312 311 314 312 309 309 305 301 300 298 293 291 291 290
88 88 42 358 352 85 310 307 309 349 341 320 316 315 316 315 305 305 307 316 308 307 309 312 314 316 311 309 316 310 308 311 310 312 315 316 316 311 309 307 308 305 301 298 296 294 294 292 291
114 92 61 300 338 320 325 296 285 305 311 311 297 298 305 300 306 312 310 316 310 302 305 308 314 317 313 312 309 307 307 308 309 311 309 310 310 310 310 309 307 305 303 303 301 298 295 293 292
168 139 187 233 169 252 274 262 282 297 309 305 294 299 299 302 307 306 309 309 308 307 306 310 309 308 311 308 307 299 309 309 310 311 313 313 312 309 308 308 305 304 303 300 299 298 297 296 293
188 183 223 263 305 279 270 261 269 276 280 282 288 300 303 304 303 302 303 305 306 304 303 303 301 302 300 300 301 305 306 307 309 311 312 309 309 311 310 307 307 304 301 299 297 295 294 292 291
219 219 239 262 228 260 266 275 278 286 296 293 277 294 295 295 293 293 297 296 295 295 293 293 293 293 296 299 302 303 304 306 308 309 309 310 309 306 305 305 303 301 301 299 298 296 295 292 289
235 232 245 257 269 268 276 270 288 294 278 280 283 291 293 290 289 291 295 291 290 290 292 294 292 294 298 296 298 299 303 307 307 307 306 304 303 304 305 304 303 302 299 298 297 294 291 288 287
251 246 251 258 262 272 285 274 281 279 284 283 272 289 278 286 295 293 291 290 291 293 294 291 292 295 293 297 302 304 305 304 303 302 303 305 306 305 303 302 301 298 298 297 295 294 291 288 287
262 264 267 268 266 266 236 240 267 272 276 296 287 288 276 298 300 301 302 300 294 292 294 296 298 298 302 303 303 301 299 302 305 305 305 304 302 302 302 300 299 299 297 295 293 292 290 288 287
279 278 268 261 259 256 252 248 249 265 277 284 286 288 287 295 300 299 299 297 294 294 293 296 298 300 302 306 308 309 309 309 309 307 306 305 305 303 302 300 298 296 295 295 294 292 290 288 286
328 329 295 269 269 275 267 273 278 277 279 280 282 288 294 294 293 299 297 303 306 311 306 300 299 300 301 304 307 307 305 305 304 304 304 303 302 301 299 298 297 296 295 293 292 292 291 290 290
353 336 325 312 298 286 266 263 269 270 274 275 275 285 291 290 298 293 294 296 297 299 302 306 308 309 310 311 310 310 311 309 308 308 308 306 303 301 300 299 298 297 295 294 292 292 292 293 292
10 1 2 350 338 314 274 272 264 271 269 270 282 284 293 305 314 308 307 309 313 315 315 313 313 315 315 312 310 309 308 309 310 309 307 305 305 304 303 302 300 299 298 297 296 296 295 294 292
16 15 14 359 351 336 311 280 282 280 282 279 286 295 303 313 310 314 311 313 315 316 315 316 316 314 311 309 310 310 310 311 310 308 307 306 306 306 305 302 301 299 297 297 298 296 296 295 291
10 4 5 2 351 337 328 305 292 289 290 301 298 298 305 311 307 307 313 313 316 315 316 313 310 308 308 309 308 308 309 311 312 311 308 309 308 309 305 309 306 303 304 302 299 298 297 295 294